Location: Unspecified
(0.0000°N, 0.0000°E)
Time: 21:08:18
(UTC+00:00)

CZ-3C DEB (VEB) - Pass Details

Date: 09 March 2026
Orbit: 224 x 25513 km, 21.0° (Epoch: 10 April)

Event Time Altitude Azimuth Distance (km) Brightness Sun altitude
Rises 20:47:52 0° 282° (WNW) 4,543 ? -39.2°
Reaches altitude 10° 20:49:49 10° 288° (WNW) 4,186 ? -39.7°
Maximum altitude 21:03:44 51° 4° (N) 5,724 ? -43.2°
Enters shadow 21:28:40 41° 49° (NE) 12,100 ? -49.4°
Exits shadow 22:00:10 35° 59° (ENE) 18,223 ? -57.2°
Drops below altitude 10° 03:16:29 10° 102° (ESE) 13,543 ? -43.3°
Sets 03:25:00 0° 104° (ESE) 12,570 ? -41.2°
